1487307600.59,17962,12.69,73708.8,-6.25,-12.43,-15.43,0,*5D
1487307601.81,17963,12.69,73712.0,-6.25,-12.47,-15.49,0,*52
1487307603.09,17964,12.69,73708.0,-6.29,-12.57,-15.57,0,*57
1487307604.37,17965,12.69,73708.5,-6.29,-12.57,-15.57,0,*56
1487307605.62,17966,12.69,73710.3,-6.29,-12.47,-15.57,0,*54
1487307606.87,17967,12.69,73710.8,-6.25,-12.53,-15.53,0,*58
1487307608.1,17968,12.69,73714.0,-6.25,-12.57,-15.67,0,*54
1487307609.36,17969,12.69,73710.0,-6.29,-12.57,-15.71,0,*5E
1487307610.61,17970,12.69,73712.8,-6.29,-12.61,-15.71,0,*53
1487307611.86,17971,12.69,73712.5,-6.29,-12.61,-15.75,0,*56
1487307613.1,17972,12.69,73710.0,-6.25,-12.65,-15.71,0,*59
1487307614.35,17973,12.69,73710.8,-6.29,-12.61,-15.71,0,*50
1487307615.59,17974,12.69,73712.5,-6.25,-12.65,-15.71,0,*5F
1487307616.88,17975,12.69,73710.8,-6.29,-12.75,-15.85,0,*58
1487307618.14,17976,12.69,73710.8,-6.25,-12.65,-15.81,0,*52
1487307619.42,17977,12.69,73710.0,-6.29,-12.71,-15.89,0,*52
1487307620.7,17978,12.69,73710.5,-6.29,-12.71,-15.89,0,*5D
1487307621.97,17979,12.69,73710.3,-6.25,-12.71,-15.81,0,*58
1487307623.2,17980,12.69,73710.0,-6.25,-12.83,-16.03,0,*5A
1487307624.46,17981,12.69,73708.8,-6.25,-12.79,-16.13,0,*5F
1487307625.72,17982,12.69,73710.3,-6.29,-12.89,-16.17,0,*5B
1487307626.98,17983,12.69,73708.3,-6.29,-12.89,-16.17,0,*5A
1487307628.24,17984,12.69,73710.8,-6.29,-12.97,-16.17,0,*52
1487307629.49,17985,12.69,73714.8,-6.29,-12.97,-16.23,0,*54
1487307630.75,17986,12.69,73710.8,-6.25,-12.83,-16.27,0,*5A
1487307631.99,17987,12.69,73710.5,-6.25,-12.97,-16.17,0,*5D
1487307633.27,17988,12.75,73714.0,-6.29,-13.01,-16.23,0,*57
1487307634.52,17989,12.69,73708.0,-6.29,-13.01,-16.37,0,*53
1487307635.73,17990,12.69,73714.0,-6.25,-13.07,-16.41,0,*50
1487307636.95,17991,12.69,73712.3,-6.25,-13.11,-16.41,0,*56
1487307638.17,17992,12.69,73714.8,-6.29,-13.11,-16.45,0,*5D
1487307639.4,17993,12.69,73714.3,-6.31,-13.01,-16.45,0,*54
1487307640.62,17994,12.69,73714.0,-6.29,-13.11,-16.45,0,*5B
1487307641.83,17995,12.69,73710.3,-6.25,-13.11,-16.55,0,*57
1487307643.04,17996,12.69,73710.8,-6.25,-13.19,-16.45,0,*5D
1487307644.26,17997,12.69,73712.5,-6.25,-13.19,-16.55,0,*5D
1487307645.49,17998,12.69,73710.5,-6.29,-13.23,-16.59,0,*5B
1487307646.71,17999,12.69,73712.8,-6.25,-13.19,-16.59,0,*5F
1487307647.99,18000,12.69,73712.5,-6.29,-13.29,-16.65,0,*59
1487307649.27,18001,12.69,73710.3,-6.29,-13.29,-16.65,0,*58
1487307650.53,18002,12.69,73714.0,-6.29,-13.33,-16.75,0,*51
1487307651.75,18003,12.69,73712.0,-6.29,-13.47,-16.89,0,*50
1487307652.96,18004,12.69,73712.0,-6.25,-13.43,-16.83,0,*55
1487307654.19,18005,12.69,73710.5,-6.29,-13.55,-16.89,0,*55
1487307655.41,18006,12.69,73714.0,-6.29,-13.47,-16.89,0,*55
1487307656.67,18007,12.69,73714.0,-6.29,-13.55,-17.03,0,*54
1487307657.95,18008,12.69,73714.8,-6.29,-13.61,-17.21,0,*5C
1487307659.2,18009,12.69,73714.0,-6.29,-13.55,-17.11,0,*59
1487307660.45,18010,12.69,73712.5,-6.25,-13.55,-17.07,0,*5A
1487307661.73,18011,12.69,73714.5,-6.29,-13.61,-17.11,0,*57
1487307662.98,18012,12.69,73712.0,-6.29,-13.55,-17.21,0,*50
1487307664.22,18013,12.69,73712.8,-6.25,-13.55,-17.17,0,*58
1487307665.47,18014,12.69,73710.0,-6.29,-13.69,-17.25,0,*5D
1487307666.71,18015,12.69,73710.8,-6.29,-13.73,-17.35,0,*56
1487307667.99,18016,12.69,73714.0,-6.29,-13.83,-17.41,0,*59
1487307669.26,18017,12.69,73710.3,-6.25,-13.83,-17.45,0,*50
1487307670.5,18018,12.69,73710.5,-6.31,-14.01,-17.49,0,*5B
1487307671.78,18019,12.69,73714.5,-6.29,-13.97,-17.63,0,*53
1487307673.06,18020,12.69,73714.5,-6.29,-14.01,-17.63,0,*51
1487307674.32,18021,12.69,73710.3,-6.29,-13.97,-17.69,0,*52
1487307675.56,18022,12.69,73714.8,-6.29,-14.11,-17.69,0,*58
1487307676.79,18023,12.69,73708.5,-6.29,-14.11,-17.69,0,*59
1487307678.04,18024,12.69,73708.8,-6.25,-14.15,-17.79,0,*57
1487307679.29,18025,12.69,73708.8,-6.29,-14.23,-17.93,0,*5B
1487307680.54,18026,12.69,73712.5,-6.29,-14.29,-17.93,0,*52
1487307681.8,18027,12.69,73714.0,-6.29,-14.33,-17.97,0,*5C
1487307683.08,18028,12.69,73712.0,-6.29,-14.43,-17.97,0,*54
1487307684.34,18029,12.69,73708.5,-6.29,-14.33,-17.97,0,*52
1487307685.62,18030,12.69,73710.8,-6.29,-14.43,-18.01,0,*5D
1487307686.89,18031,12.69,73710.8,-6.29,-14.47,-18.11,0,*59
1487307688.15,18032,12.69,73710.8,-6.29,-14.55,-18.11,0,*59
1487307689.4,18033,12.69,73710.0,-6.29,-14.55,-18.17,0,*5E
1487307690.65,18034,12.69,73710.0,-6.29,-14.55,-18.17,0,*59
1487307691.88,18035,12.69,73714.3,-6.31,-14.55,-18.17,0,*51
1487307693.1,18036,12.69,73710.5,-6.31,-14.55,-18.25,0,*53
1487307694.3,18037,12.69,73710.0,-6.31,-14.61,-18.25,0,*55
1487307695.53,18038,12.69,73714.5,-6.31,-14.69,-18.31,0,*57
1487307696.79,18039,12.69,73708.5,-6.31,-14.83,-18.31,0,*52
1487307698.02,18040,12.69,73712.5,-6.31,-14.83,-18.45,0,*5F
1487307699.23,18041,12.69,73712.3,-6.31,-14.89,-18.45,0,*54
1487307700.43,18042,12.69,73712.8,-6.31,-14.89,-18.45,0,*57
1487307701.63,18043,12.69,73708.3,-6.31,-14.89,-18.45,0,*56
1487307702.88,18044,12.69,73708.5,-6.29,-14.97,-18.45,0,*57
1487307704.11,18045,12.69,73712.8,-6.33,-15.15,-18.65,0,*54
1487307705.31,18046,12.69,73712.0,-6.31,-15.11,-18.69,0,*5D
1487307706.5,18047,12.69,73712.0,-6.31,-15.11,-18.69,0,*5C
1487307707.72,18048,12.69,73712.0,-6.31,-15.11,-18.59,0,*50
1487307708.94,18049,12.69,73712.8,-6.31,-15.01,-18.69,0,*53
1487307710.18,18050,12.69,73712.0,-6.33,-15.21,-18.79,0,*5A
1487307711.41,18051,12.69,73712.5,-6.31,-15.21,-18.73,0,*53
1487307712.63,18052,12.69,73710.5,-6.31,-15.35,-19.03,0,*53
1487307713.88,18053,12.69,73710.0,-6.33,-15.39,-19.03,0,*5C
1487307715.1,18054,12.69,73712.3,-6.31,-15.43,-19.03,0,*54
1487307716.3,18055,12.69,73712.0,-6.31,-15.49,-19.17,0,*5A
1487307717.52,18056,12.69,73714.0,-6.31,-15.43,-19.07,0,*52
1487307718.75,18057,12.69,73708.5,-6.31,-15.57,-19.17,0,*57
1487307720.01,18058,12.69,73712.0,-6.33,-15.67,-19.27,0,*5A
1487307721.24,18059,12.69,73712.3,-6.33,-15.67,-19.37,0,*5A
1487307722.47,18060,12.69,73712.0,-6.31,-15.75,-19.31,0,*57
1487307723.72,18061,12.69,73710.3,-6.33,-15.81,-19.37,0,*59
1487307724.95,18062,12.69,73712.8,-6.33,-15.95,-19.51,0,*5F
1487307726.18,18063,12.69,73712.3,-6.33,-16.03,-19.51,0,*52
1487307727.41,18064,12.69,73712.3,-6.31,-16.03,-19.61,0,*54
1487307728.61,18065,12.69,73714.8,-6.31,-16.03,-19.51,0,*56
1487307729.82,18066,12.69,73710.8,-6.31,-16.03,-19.51,0,*55
1487307731.1,18067,12.69,73708.0,-6.33,-16.23,-19.81,0,*59
1487307732.35,18068,12.69,73714.3,-6.31,-16.17,-19.65,0,*59
1487307733.61,18069,12.69,73712.5,-6.31,-16.23,-19.65,0,*5F
1487307734.84,18070,12.69,73714.8,-6.31,-16.41,-19.85,0,*5D
1487307736.1,18071,12.69,73712.5,-6.33,-16.51,-19.95,0,*5E
1487307737.31,18072,12.69,73712.8,-6.31,-16.59,-19.91,0,*53
1487307738.57,18073,12.69,73708.0,-6.33,-16.65,-19.95,0,*5B
1487307739.81,18074,12.69,73710.5,-6.33,-16.59,-19.95,0,*53
1487307741.04,18075,12.69,73712.8,-6.33,-16.79,-20.05,0,*53
1487307742.25,18076,12.69,73712.8,-6.31,-16.75,-19.95,0,*5D
1487307743.48,18077,12.69,73712.0,-6.33,-16.93,-20.05,0,*55
1487307744.76,18078,12.69,73710.3,-6.33,-17.07,-20.15,0,*57
1487307746.04,18079,12.69,73708.5,-6.33,-17.07,-20.15,0,*56
1487307747.33,18080,12.69,73712.3,-6.33,-17.17,-20.19,0,*5D
1487307748.61,18081,12.69,73710.5,-6.33,-17.17,-20.19,0,*5C
1487307749.9,18082,12.69,73710.0,-6.33,-17.17,-20.19,0,*5F
1487307751.19,18083,12.69,73708.3,-6.33,-17.25,-20.19,0,*5F
1487307752.41,18084,12.69,73708.0,-6.33,-17.31,-20.29,0,*5E
1487307753.64,18085,12.69,73710.8,-6.33,-17.31,-20.29,0,*5F
1487307754.92,18086,12.69,73708.5,-6.33,-17.59,-20.35,0,*5F
1487307756.2,18087,12.69,73708.5,-6.33,-17.59,-20.35,0,*5E
1487307757.46,18088,12.69,73708.8,-6.33,-17.73,-20.49,0,*52
1487307758.73,18089,12.69,73710.5,-6.33,-17.69,-20.49,0,*58
1487307759.96,18090,12.69,73710.5,-6.35,-17.73,-20.49,0,*5D
1487307761.18,18091,12.69,73710.8,-6.35,-17.87,-20.63,0,*5F
1487307762.44,18092,12.69,73712.0,-6.33,-17.87,-20.49,0,*52
1487307763.68,18093,12.69,73710.0,-6.31,-17.93,-20.39,0,*53
1487307764.94,18094,12.69,73712.8,-6.33,-18.01,-20.63,0,*5D
1487307766.18,18095,12.69,73708.8,-6.33,-18.17,-20.63,0,*5B
1487307767.4,18096,12.69,73712.8,-6.35,-18.07,-20.59,0,*56
1487307768.63,18097,12.69,73710.0,-6.33,-18.17,-20.59,0,*50
1487307769.87,18098,12.69,73710.5,-6.33,-18.21,-20.63,0,*53
1487307771.11,18099,12.69,73710.0,-6.31,-18.31,-20.59,0,*58
1487307772.36,18100,12.69,73712.0,-6.33,-18.45,-20.79,0,*5A
1487307773.64,18101,12.69,73712.8,-6.33,-18.59,-20.79,0,*56
1487307774.88,18102,12.69,73712.3,-6.33,-18.65,-20.89,0,*55
1487307776.1,18103,12.69,73714.0,-6.35,-18.65,-20.73,0,*57
1487307777.33,18104,12.69,73712.8,-6.35,-18.59,-20.63,0,*5E
1487307778.55,18105,12.69,73714.8,-6.35,-18.79,-20.73,0,*5C
1487307779.78,18106,12.69,73714.0,-6.35,-18.93,-20.73,0,*5B
1487307781.0,18107,12.69,73710.8,-6.35,-19.03,-20.93,0,*5C
1487307782.23,18108,12.69,73714.0,-6.37,-18.99,-20.93,0,*53
1487307783.51,18109,12.69,73712.0,-6.37,-18.93,-20.99,0,*52
1487307784.78,18110,12.69,73710.0,-6.37,-19.17,-20.99,0,*57
1487307785.99,18111,12.69,73710.3,-6.35,-19.07,-20.93,0,*5F
1487307787.23,18112,12.69,73710.3,-6.37,-19.13,-20.93,0,*5B
1487307788.52,18113,12.69,73710.5,-6.37,-19.27,-20.99,0,*57
1487307789.76,18114,12.69,73708.5,-6.37,-19.17,-20.93,0,*59
1487307791.02,18115,12.69,73706.0,-6.37,-19.17,-20.83,0,*59
1487307792.26,18116,12.69,73708.8,-6.35,-19.13,-20.79,0,*59
1487307793.5,18117,12.69,73712.3,-6.35,-19.27,-20.93,0,*5B
1487307794.78,18118,12.69,73714.3,-6.37,-19.41,-20.99,0,*5C
1487307796.03,18119,12.69,73710.0,-6.35,-19.41,-20.89,0,*5E
1487307797.29,18120,12.69,73714.3,-6.37,-19.61,-20.93,0,*5F
1487307798.57,18121,12.69,73710.8,-6.37,-19.61,-20.99,0,*54
1487307799.81,18122,12.69,73708.5,-6.37,-19.71,-20.93,0,*5C
1487307801.06,18123,12.69,73712.5,-6.37,-19.75,-20.99,0,*53
1487307802.34,18124,12.69,73704.8,-6.37,-19.85,-20.99,0,*5B
1487307803.57,18125,12.69,73710.5,-6.37,-19.91,-21.13,0,*5C
1487307804.8,18126,12.69,73708.8,-6.37,-19.91,-21.13,0,*5F
1487307806.03,18127,12.69,73710.8,-6.35,-19.85,-20.93,0,*50
1487307807.29,18128,12.69,73708.5,-6.37,-19.91,-20.99,0,*52
1487307808.52,18129,12.69,73714.3,-6.37,-19.91,-20.93,0,*59
1487307809.77,18130,12.69,73710.0,-6.37,-19.85,-20.93,0,*54
1487307811.0,18131,12.69,73710.8,-6.37,-19.91,-20.93,0,*50
1487307812.24,18132,12.69,73708.8,-6.39,-19.95,-21.03,0,*51
1487307813.47,18133,12.69,73710.8,-6.39,-20.05,-20.99,0,*51
1487307814.7,18134,12.69,73714.3,-6.39,-20.09,-20.99,0,*5A
1487307815.92,18135,12.69,73710.8,-6.39,-20.09,-20.99,0,*5B
1487307817.15,18136,12.69,73714.5,-6.37,-20.09,-20.93,0,*5C
1487307818.38,18137,12.69,73708.5,-6.39,-20.09,-20.99,0,*59
1487307819.59,18138,12.69,73714.5,-6.39,-20.09,-20.89,0,*57
1487307820.85,18139,12.69,73714.0,-6.39,-20.15,-21.03,0,*58
1487307822.1,18140,12.69,73708.0,-6.39,-20.15,-20.99,0,*54
1487307823.34,18141,12.69,73710.5,-6.39,-20.15,-20.89,0,*54
1487307824.62,18142,12.69,73714.8,-6.41,-20.15,-20.83,0,*52
1487307825.83,18143,12.69,73710.5,-6.39,-20.09,-20.89,0,*5B
1487307827.07,18144,12.69,73714.0,-6.41,-20.25,-20.89,0,*5D
1487307828.32,18145,12.69,73708.8,-6.41,-20.25,-20.83,0,*56
1487307829.58,18146,12.69,73710.5,-6.39,-20.15,-20.83,0,*59
1487307830.81,18147,12.69,73714.8,-6.41,-20.25,-20.73,0,*5B
1487307832.02,18148,12.69,73708.5,-6.39,-20.25,-20.73,0,*5B
1487307833.22,18149,12.69,73712.8,-6.39,-20.25,-20.69,0,*51
1487307834.46,18150,12.69,73710.5,-6.41,-20.25,-20.73,0,*5D
1487307835.71,18151,12.69,73708.0,-6.41,-20.15,-20.59,0,*57
1487307836.95,18152,12.69,73712.0,-6.39,-20.25,-20.53,0,*52
1487307838.23,18153,12.69,73706.3,-6.41,-20.15,-20.53,0,*5F
1487307839.49,18154,12.69,73710.5,-6.41,-20.15,-20.43,0,*59
1487307840.7,18155,12.69,73708.5,-6.39,-20.25,-20.39,0,*59
1487307841.98,18156,12.69,73712.3,-6.41,-20.15,-20.53,0,*5A
1487307843.24,18157,12.69,73708.3,-6.41,-20.15,-20.39,0,*57
1487307844.44,18158,12.69,73712.5,-6.39,-20.09,-20.29,0,*5B
1487307845.7,18159,12.69,73708.5,-6.41,-20.15,-20.39,0,*59
1487307846.91,18160,12.69,73710.5,-6.39,-20.09,-20.39,0,*51
1487307848.12,18161,12.69,73710.5,-6.39,-20.09,-20.43,0,*5D
1487307849.32,18162,12.69,73708.5,-6.39,-20.09,-20.29,0,*52
1487307850.55,18163,12.69,73708.5,-6.41,-20.09,-20.29,0,*5C
1487307851.78,18164,12.69,73708.5,-6.41,-20.05,-20.25,0,*5B
1487307852.99,18165,12.69,73708.5,-6.39,-19.95,-20.25,0,*56
1487307854.23,18166,12.69,73712.5,-6.41,-19.95,-20.25,0,*5A
1487307855.47,18167,12.69,73710.5,-6.41,-19.95,-20.25,0,*5B
1487307856.71,18168,12.69,73710.8,-6.41,-19.95,-20.25,0,*54
1487307857.97,18169,12.69,73708.3,-6.41,-19.95,-20.15,0,*56
1487307859.22,18170,12.69,73708.8,-6.41,-19.81,-20.25,0,*58
1487307860.46,18171,12.69,73710.5,-6.41,-19.95,-20.25,0,*5C
1487307861.72,18172,12.69,73710.3,-6.41,-19.91,-19.65,0,*55
1487307862.97,18173,12.69,73708.5,-6.43,-19.41,-19.27,0,*5D
1487307864.2,18174,12.69,73712.3,-6.43,-19.23,-19.03,0,*58
1487307865.45,18175,12.69,73710.0,-6.43,-18.89,-19.23,0,*5A
1487307866.71,18176,12.69,73708.5,-6.41,-18.41,-19.31,0,*5C
1487307867.92,18177,12.69,73712.0,-6.43,-18.49,-19.95,0,*59
1487307869.17,18178,12.69,73710.0,-6.41,-18.59,-20.05,0,*56
1487307870.4,18179,12.69,73708.0,-6.41,-18.83,-20.05,0,*50
1487307871.66,18180,12.69,73710.5,-6.41,-18.89,-20.25,0,*5E
1487307872.91,18181,12.69,73712.0,-6.41,-19.37,-20.43,0,*5B
1487307874.19,18182,12.69,73708.8,-6.41,-19.65,-20.53,0,*5E
1487307875.46,18183,12.69,73710.8,-6.41,-19.65,-20.43,0,*5E
1487307876.7,18184,12.69,73710.5,-6.45,-19.71,-20.43,0,*58
1487307877.97,18185,12.69,73708.0,-6.41,-19.65,-20.43,0,*58
1487307879.21,18186,12.69,73710.8,-6.43,-19.71,-20.49,0,*56
1487307880.46,18187,12.69,73710.0,-6.43,-19.81,-20.49,0,*58
1487307881.7,18188,12.69,73710.8,-6.41,-19.75,-20.39,0,*59
1487307882.94,18189,12.69,73708.5,-6.41,-19.75,-20.39,0,*58
1487307884.17,18190,12.69,73708.8,-6.41,-19.75,-20.29,0,*51
1487307885.4,18191,12.69,73708.5,-6.43,-19.65,-20.29,0,*53
1487307886.64,18192,12.69,73710.0,-6.43,-19.51,-20.35,0,*5A
1487307887.87,18193,12.69,73708.3,-6.43,-19.65,-20.29,0,*51
1487307889.11,18194,12.69,73706.5,-6.43,-19.65,-20.29,0,*56
1487307890.34,18195,12.69,73708.5,-6.43,-19.65,-20.29,0,*57
1487307891.58,18196,12.69,73710.3,-6.43,-19.57,-19.99,0,*54
1487307892.84,18197,12.69,73710.3,-6.41,-19.17,-19.65,0,*50
1487307894.09,18198,12.69,73710.5,-6.43,-18.89,-19.41,0,*5D
1487307895.35,18199,12.69,73706.8,-6.43,-18.35,-19.27,0,*5B
1487307896.58,18200,12.69,73708.8,-6.45,-18.11,-19.37,0,*59
1487307897.81,18201,12.69,73710.0,-6.43,-18.01,-19.51,0,*5F
1487307899.04,18202,12.69,73710.5,-6.43,-18.17,-19.81,0,*56
1487307900.32,18203,12.69,73710.8,-6.45,-18.59,-19.81,0,*5B
1487307901.59,18204,12.69,73710.5,-6.45,-18.89,-19.65,0,*5B
1487307902.85,18205,12.69,73708.5,-6.43,-18.93,-19.41,0,*51
1487307904.08,18206,12.69,73712.8,-6.45,-19.03,-19.07,0,*5E
1487307905.3,18207,12.69,73710.5,-6.43,-18.59,-18.49,0,*5C
1487307906.53,18208,12.69,73708.8,-6.43,-18.35,-18.17,0,*52
1487307907.74,18209,12.69,73710.8,-6.43,-18.21,-17.87,0,*50
1487307909.0,18210,12.69,73714.3,-6.45,-18.17,-17.45,0,*55
1487307910.25,18211,12.69,73708.3,-6.45,-17.59,-16.97,0,*5F
1487307911.48,18212,12.69,73708.0,-6.43,-17.31,-16.69,0,*55
1487307912.71,18213,12.69,73708.8,-6.43,-16.97,-16.51,0,*52
1487307913.96,18214,12.69,73710.3,-6.45,-16.69,-16.03,0,*55
1487307915.17,18215,12.69,73710.8,-6.43,-16.55,-15.67,0,*5C
1487307916.43,18216,12.69,73706.0,-6.45,-16.27,-15.07,0,*5A
1487307917.66,18217,12.69,73708.3,-6.43,-15.67,-15.01,0,*5C
1487307918.92,18218,12.69,73708.5,-6.45,-15.63,-15.39,0,*5A
1487307920.15,18219,12.69,73710.5,-6.43,-15.53,-15.89,0,*55
1487307921.38,18220,12.69,73708.5,-6.43,-15.53,-16.51,0,*59
1487307922.66,18221,12.69,73708.5,-6.45,-15.89,-17.11,0,*5C
1487307923.9,18222,12.69,73708.0,-6.43,-16.41,-17.59,0,*52
1487307925.18,18223,12.69,73712.5,-6.45,-16.51,-18.01,0,*56
1487307926.44,18224,12.69,73710.0,-6.45,-16.65,-18.17,0,*51
1487307927.67,18225,12.69,73708.3,-6.43,-16.93,-18.31,0,*5B
1487307928.93,18226,12.69,73708.0,-6.45,-17.07,-18.49,0,*5D
1487307930.18,18227,12.69,73706.3,-6.45,-17.25,-18.49,0,*5C
1487307931.46,18228,12.69,73710.3,-6.45,-17.41,-18.59,0,*50
1487307932.69,18229,12.69,73706.0,-6.43,-17.41,-18.49,0,*56
1487307933.94,18230,12.69,73708.0,-6.43,-17.41,-18.59,0,*5F
1487307935.18,18231,12.69,73708.8,-6.43,-17.41,-18.45,0,*53
1487307936.41,18232,12.69,73710.5,-6.43,-17.41,-18.45,0,*50
1487307937.67,18233,12.69,73708.8,-6.41,-17.41,-18.41,0,*57
1487307938.9,18234,12.69,73710.8,-6.43,-17.41,-18.17,0,*51
1487307940.13,18235,12.69,73710.8,-6.43,-17.11,-18.21,0,*50
1487307941.37,18236,12.69,73710.0,-6.43,-17.21,-18.73,0,*57
1487307942.56,18237,12.69,73710.5,-6.43,-17.31,-19.03,0,*51
1487307943.82,18238,12.69,73708.5,-6.45,-17.25,-19.17,0,*58
1487307945.05,18239,12.69,73712.0,-6.45,-17.31,-19.51,0,*5E
1487307946.31,18240,12.69,73708.0,-6.45,-17.41,-19.71,0,*55
1487307947.57,18241,12.69,73710.3,-6.45,-17.45,-19.95,0,*5A
1487307948.83,18242,12.69,73710.0,-6.43,-17.45,-20.19,0,*51
1487307950.06,18243,12.69,73708.0,-6.43,-17.59,-20.29,0,*5E
1487307951.32,18244,12.69,73708.3,-6.45,-17.59,-20.43,0,*53
1487307952.61,18245,12.69,73710.5,-6.45,-17.55,-20.49,0,*54
1487307953.91,18246,12.69,73708.5,-6.45,-17.41,-20.49,0,*52
1487307955.16,18247,12.69,73708.5,-6.45,-17.11,-20.29,0,*50
1487307956.39,18248,12.69,73710.0,-6.45,-16.83,-19.71,0,*52
1487307957.65,18249,12.69,73708.0,-6.45,-16.65,-19.17,0,*5B
1487307958.9,18250,12.69,73710.3,-6.45,-16.51,-19.03,0,*51
1487307960.16,18251,12.69,73710.5,-6.45,-16.37,-18.93,0,*58
1487307961.37,18252,12.69,73708.0,-6.43,-16.41,-19.37,0,*53
1487307962.63,18253,12.69,73708.5,-6.45,-16.69,-20.09,0,*59
1487307963.86,18254,12.69,73710.5,-6.43,-17.11,-20.29,0,*54
1487307965.13,18255,12.69,73708.0,-6.45,-17.45,-20.43,0,*5E
1487307966.38,18256,12.69,73708.3,-6.45,-17.59,-20.29,0,*5C
1487307967.64,18257,12.69,73708.0,-6.45,-17.59,-19.99,0,*5C
1487307968.9,18258,12.69,73710.8,-6.45,-17.41,-19.95,0,*56
1487307970.19,18259,12.69,73708.5,-6.45,-17.41,-19.81,0,*52
1487307971.44,18260,12.69,73710.0,-6.45,-17.31,-19.65,0,*55
1487307972.69,18261,12.69,73712.0,-6.45,-17.31,-19.81,0,*5E
1487307973.98,18262,12.69,73706.5,-6.45,-17.45,-19.81,0,*5E
1487307975.27,18263,12.69,73706.0,-6.45,-17.45,-19.57,0,*54
1487307976.56,18264,12.69,73708.8,-6.45,-17.41,-19.27,0,*50
1487307977.84,18265,12.69,73706.8,-6.45,-17.25,-19.27,0,*53
1487307979.13,18266,12.69,73708.3,-6.45,-17.45,-19.57,0,*51
1487307980.41,18267,12.69,73710.0,-6.45,-17.59,-19.81,0,*56
1487307981.67,18268,12.69,73706.0,-6.45,-17.69,-19.65,0,*50
1487307982.92,18269,12.69,73706.3,-6.45,-17.69,-19.41,0,*57
1487307984.2,18270,12.69,73708.8,-6.45,-17.55,-19.27,0,*50
1487307985.46,18271,12.69,73710.5,-6.45,-17.55,-19.37,0,*50
1487307986.71,18272,12.69,73708.5,-6.43,-17.59,-19.81,0,*54
1487307987.95,18273,12.69,73708.3,-6.45,-17.83,-20.09,0,*5E
1487307989.18,18274,12.69,73710.0,-6.45,-18.17,-20.29,0,*59
1487307990.44,18275,12.69,73708.3,-6.45,-18.17,-20.19,0,*5B
1487307991.72,18276,12.69,73708.8,-6.45,-18.35,-20.35,0,*56
1487307993.0,18277,12.69,73704.0,-6.45,-18.35,-20.35,0,*57
1487307994.24,18278,12.69,73710.0,-6.45,-18.45,-20.43,0,*5E
1487307995.48,18279,12.69,73708.0,-6.43,-18.49,-20.49,0,*5F
1487307996.76,18280,12.69,73708.8,-6.45,-18.59,-20.49,0,*5E
1487307998.02,18281,12.69,73708.0,-6.45,-18.59,-20.43,0,*55
1487307999.31,18282,12.69,73708.3,-6.45,-18.59,-20.49,0,*5C
1487308000.58,18283,12.69,73710.3,-6.45,-18.49,-20.49,0,*5C
1487308001.81,18284,12.69,73710.0,-6.45,-18.49,-20.43,0,*51
1487308003.1,18285,12.69,73708.0,-6.45,-18.59,-20.49,0,*5B
1487308004.39,18286,12.69,73710.8,-6.45,-18.35,-20.49,0,*52
1487308005.65,18287,12.69,73710.8,-6.45,-18.49,-20.49,0,*58
1487308006.92,18288,12.69,73710.8,-6.45,-18.45,-20.49,0,*5B
1487308008.16,18289,12.69,73708.0,-6.47,-18.35,-20.59,0,*5E
1487308009.39,18290,12.69,73710.5,-6.45,-18.49,-20.63,0,*56
1487308010.66,18291,12.69,73708.0,-6.45,-18.35,-20.59,0,*55
1487308011.9,18292,12.69,73710.5,-6.45,-18.45,-20.59,0,*51
1487308013.11,18293,12.69,73708.3,-6.43,-18.45,-20.73,0,*5E
1487308014.34,18294,12.69,73704.5,-6.45,-18.45,-20.73,0,*5F
1487308015.57,18295,12.69,73706.8,-6.47,-18.45,-20.79,0,*56
1487308016.83,18296,12.69,73708.3,-6.47,-18.35,-20.79,0,*52
1487308018.06,18297,12.69,73706.8,-6.47,-18.45,-20.79,0,*54
1487308019.27,18298,12.69,73708.8,-6.47,-18.45,-20.93,0,*5F
1487308020.51,18299,12.69,73704.5,-6.47,-18.49,-21.03,0,*5A
1487308021.74,18300,12.69,73704.0,-6.47,-18.59,-21.09,0,*50
1487308022.94,18301,12.69,73708.5,-6.47,-18.45,-21.09,0,*5C
1487308024.15,18302,12.69,73708.5,-6.51,-18.49,-21.13,0,*5F
1487308025.35,18303,12.69,73710.3,-6.47,-18.49,-21.09,0,*52
1487308026.64,18304,12.69,73704.5,-6.45,-18.59,-21.23,0,*5E
1487308027.89,18305,12.69,73708.3,-6.45,-18.59,-21.09,0,*57
1487308029.15,18306,12.69,73708.8,-6.45,-18.49,-21.03,0,*5F
1487308030.41,18307,12.69,73706.3,-6.45,-18.49,-21.03,0,*5E
1487308031.62,18308,12.69,73710.0,-6.47,-18.49,-20.59,0,*5D
1487308032.85,18309,12.69,73708.0,-6.51,-18.25,-20.35,0,*5B
1487308034.08,18310,12.69,73708.8,-6.47,-18.21,-20.15,0,*52
1487308035.32,18311,12.69,73710.3,-6.47,-18.01,-19.95,0,*53
1487308036.58,18312,12.69,73710.5,-6.45,-17.97,-19.37,0,*5A
1487308037.83,18313,12.69,73710.8,-6.45,-17.69,-18.59,0,*53
1487308039.06,18314,12.69,73708.8,-6.43,-17.41,-18.45,0,*55
1487308040.31,18315,12.69,73710.8,-6.43,-17.11,-18.59,0,*5C
1487308041.55,18316,12.69,73708.0,-6.45,-17.21,-19.07,0,*50
1487308042.75,18317,12.69,73708.5,-6.43,-17.31,-19.51,0,*55
1487308044.03,18318,12.69,73708.5,-6.45,-17.55,-20.15,0,*54
1487308045.29,18319,12.69,73710.3,-6.45,-18.11,-20.35,0,*58
1487308046.54,18320,12.69,73708.3,-6.45,-18.21,-20.35,0,*51
1487308047.8,18321,12.69,73710.0,-6.45,-18.31,-20.29,0,*5C
1487308049.01,18322,12.69,73706.3,-6.47,-18.21,-20.29,0,*5C
1487308050.28,18323,12.69,73710.5,-6.47,-18.31,-20.35,0,*51
1487308051.52,18324,12.69,73708.3,-6.47,-18.21,-20.49,0,*5C
1487308052.78,18325,12.69,73710.5,-6.45,-18.31,-20.43,0,*54
1487308054.02,18326,12.69,73708.8,-6.45,-18.21,-20.63,0,*54
1487308055.26,18327,12.69,73704.5,-6.45,-18.11,-20.59,0,*5F
1487308056.52,18328,12.69,73708.3,-6.45,-17.97,-20.63,0,*58
1487308057.74,18329,12.69,73710.3,-6.47,-17.87,-20.63,0,*5A
1487308058.95,18330,12.69,73708.5,-6.47,-17.69,-20.73,0,*53
1487308060.19,18331,12.69,73712.3,-6.47,-17.59,-20.89,0,*54
1487308061.43,18332,12.69,73710.0,-6.47,-17.55,-20.89,0,*5B
1487308062.67,18333,12.69,73704.8,-6.47,-17.41,-20.63,0,*5B
1487308063.96,18334,12.69,73710.5,-6.45,-17.11,-20.49,0,*53
1487308065.22,18335,12.69,73710.3,-6.47,-17.07,-21.03,0,*58
1487308066.5,18336,12.69,73708.5,-6.45,-17.11,-21.53,0,*5B
1487308067.76,18337,12.69,73708.8,-6.47,-17.21,-21.83,0,*56
1487308069.02,18338,12.69,73710.8,-6.47,-17.25,-21.87,0,*59
1487308070.26,18339,12.69,73708.5,-6.47,-17.25,-22.03,0,*57
1487308071.49,18340,12.69,73708.5,-6.47,-17.31,-22.17,0,*59
1487308072.72,18341,12.69,73710.3,-6.47,-17.31,-22.31,0,*5C
1487308073.96,18342,12.69,73706.0,-6.47,-17.45,-22.63,0,*5B
1487308075.22,18343,12.69,73706.5,-6.47,-17.55,-22.77,0,*5E
1487308076.43,18344,12.69,73708.5,-6.51,-17.73,-22.87,0,*55
1487308077.64,18345,12.69,73708.8,-6.51,-17.87,-22.97,0,*5E
1487308078.88,18346,12.69,73708.8,-6.51,-17.93,-23.13,0,*55
1487308080.09,18347,12.69,73706.5,-6.47,-18.11,-23.09,0,*5D
1487308081.32,18348,12.69,73708.5,-6.47,-18.21,-23.19,0,*50
1487308082.58,18349,12.69,73706.5,-6.47,-18.31,-23.29,0,*53
1487308083.79,18350,12.69,73710.0,-6.51,-18.41,-23.39,0,*5A
1487308085.05,18351,12.69,73706.8,-6.51,-18.55,-23.19,0,*5C
1487308086.28,18352,12.69,73708.8,-6.51,-18.65,-23.03,0,*57
1487308087.49,18353,12.69,73710.0,-6.51,-18.65,-23.13,0,*57
1487308088.73,18354,12.69,73706.8,-6.51,-18.83,-23.19,0,*52
1487308089.94,18355,12.69,73708.0,-6.51,-18.83,-23.13,0,*59
1487308091.18,18356,12.69,73706.5,-6.51,-18.93,-23.13,0,*5B
1487308092.39,18357,12.69,73708.0,-6.47,-18.79,-22.63,0,*5F
1487308093.6,18358,12.69,73706.5,-6.51,-18.83,-22.07,0,*50
1487308094.84,18359,12.69,73706.8,-6.51,-18.65,-20.99,0,*5C
1487308096.08,18360,12.69,73706.8,-6.51,-18.41,-20.53,0,*56
1487308097.32,18361,12.69,73710.0,-6.51,-18.41,-20.99,0,*51